This demonstration page uses our WeatherBlox Daily Observations layout. Learn more.

Left ArrowRight Arrow

Hourly Observations for December 25, 2020

Temp ( °F °C ) Dew Point ( °F °C ) Humidity (%) Winds ( mph kmh ) Pressure ( in mb ) Visibility ( mi km ) Precip ( " mm )
12:15 am 00:15 Clear 26 -3.2 23 -4.8 89 89 N N/A 30.26 1025 10 16 N/A
12:35 am 00:35 Clear 26 -3.2 24 -4.4 92 92 N N/A 30.25 1024 10 16 N/A
12:55 am 00:55 Clear 25 -3.8 23 -5 91 91 S 3 6 30.24 1024 10 16 N/A
1:15 am 01:15 Clear 24 -4.2 23 -5.2 93 93 SSW 7 11 30.24 1024 10 16 N/A
1:35 am 01:35 Clear 26 -3.5 24 -4.7 92 92 SSW 3 6 30.22 1023 10 16 N/A
1:55 am 01:55 Clear 25 -3.9 23 -5 92 92 SW 6 9 30.21 1023 10 16 N/A
2:15 am 02:15 Clear 26 -3.6 23 -5.1 89 89 SW 5 7 30.20 1023 10 16 N/A
2:35 am 02:35 Clear 26 -3.1 24 -4.5 90 90 SW 7 11 30.20 1023 10 16 N/A
2:55 am 02:55 Clear 26 -3.1 24 -4.7 89 89 SW 6 9 30.20 1023 10 16 N/A
3:15 am 03:15 Clear 26 -3.3 23 -5 88 88 SW 5 7 30.19 1022 10 16 N/A
3:35 am 03:35 Clear 26 -3.2 23 -4.9 88 88 WSW 6 9 30.18 1022 10 16 N/A
3:55 am 03:55 Clear 29 -1.9 24 -4.5 83 83 WSW 5 7 30.15 1021 10 16 N/A
4:15 am 04:15 Clear 27 -2.9 23 -5.2 84 84 N N/A 30.16 1021 10 16 N/A
4:35 am 04:35 Clear 27 -2.7 23 -5.1 84 84 W 6 9 30.16 1021 10 16 N/A
4:55 am 04:55 Clear 27 -2.7 22 -5.4 82 82 W 6 9 30.14 1021 10 16 N/A
5:15 am 05:15 Clear 28 -2.1 23 -5 81 81 W 8 13 30.16 1021 10 16 N/A
5:35 am 05:35 Clear 29 -1.6 23 -5.2 77 77 W 10 17 30.15 1021 10 16 N/A
5:55 am 05:55 Clear 28 -2 22 -5.5 77 77 W 9 15 30.14 1021 10 16 N/A
6:15 am 06:15 Clear 29 -1.6 22 -5.7 74 74 W 9 15 30.15 1021 10 16 N/A
6:35 am 06:35 Clear 28 -2.1 21 -6 75 75 W 8 13 30.16 1021 10 16 N/A
6:55 am 06:55 Clear 27 -2.9 20 -6.4 77 77 W 10 17 30.16 1021 10 16 N/A
7:15 am 07:15 Clear 26 -3.6 20 -6.5 81 81 W 8 13 30.17 1022 10 16 N/A
7:35 am 07:35 Clear 26 -3.3 20 -6.5 79 79 W 7 11 30.17 1022 10 16 N/A
7:55 am 07:55 Clear 26 -3.5 20 -6.8 78 78 W 10 17 30.17 1022 10 16 N/A
8:15 am 08:15 Sunny 26 -3.1 20 -6.5 78 78 W 8 13 30.17 1022 10 16 N/A
8:35 am 08:35 Sunny 27 -2.7 21 -6.3 77 77 W 9 15 30.16 1021 10 16 N/A
8:55 am 08:55 Sunny 29 -1.9 21 -6 74 74 W 9 15 30.15 1021 10 16 N/A
9:15 am 09:15 Sunny 30 -1.2 22 -5.6 72 72 W 8 13 30.15 1021 10 16 N/A
9:35 am 09:35 Sunny 32 0.1 24 -4.7 70 70 W 7 11 30.13 1020 10 16 N/A
9:55 am 09:55 Sunny 34 1.1 25 -4.1 69 69 W 8 13 30.13 1020 10 16 N/A
10:15 am 10:15 Sunny 35 1.9 25 -3.8 66 66 W 7 11 30.12 1020 10 16 N/A
10:35 am 10:35 Sunny 38 3.1 26 -3.1 64 64 WNW 8 13 30.11 1019 10 16 N/A
10:55 am 10:55 Sunny 39 3.7 27 -2.8 63 63 W 9 15 30.11 1020 10 16 N/A
11:15 am 11:15 Sunny 40 4.6 28 -2.2 62 62 W 7 11 30.09 1019 10 16 N/A
11:35 am 11:35 Sunny 42 5.6 29 -1.9 59 59 WNW 10 17 30.08 1019 10 16 N/A
11:55 am 11:55 Sunny 44 6.4 29 -1.5 57 57 WNW 10 17 30.07 1018 10 16 N/A
12:15 pm 12:15 Sunny 45 7.4 28 -2.1 51 51 WNW 13 20 30.06 1018 10 16 N/A
12:35 pm 12:35 Sunny 47 8.3 30 -1.1 52 52 NW 12 19 30.05 1018 10 16 N/A
12:55 pm 12:55 Sunny 48 8.7 29 -1.4 49 49 WNW 8 13 30.03 1017 10 16 N/A
1:15 pm 13:15 Sunny 49 9.4 29 -1.6 46 46 WNW 10 17 30.03 1017 10 16 N/A
1:35 pm 13:35 Sunny 49 9.6 30 -1.2 47 47 WNW 7 11 30.02 1016 10 16 N/A
1:55 pm 13:55 Sunny 50 10.1 30 -1.2 46 46 WNW 8 13 30.00 1016 10 16 N/A
2:15 pm 14:15 Sunny 51 10.5 29 -1.6 43 43 WNW 8 13 30.00 1016 10 16 N/A
2:35 pm 14:35 Sunny 51 10.8 30 -1.2 44 44 W 7 11 30.00 1016 10 16 N/A
2:55 pm 14:55 Sunny 51 10.6 30 -1.3 44 44 W 6 9 30.00 1016 10 16 N/A
3:15 pm 15:15 Sunny 51 10.8 29 -1.4 43 43 WNW 6 9 30.00 1016 10 16 N/A
3:35 pm 15:35 Sunny 51 10.8 30 -1.3 43 43 NW 5 7 30.00 1016 10 16 N/A
3:55 pm 15:55 Sunny 51 10.4 32 -0.1 48 48 NW 6 9 30.00 1016 10 16 N/A
4:15 pm 16:15 Sunny 50 10 31 -0.5 48 48 NW 5 7 30.00 1016 10 16 N/A
4:35 pm 16:35 Sunny 48 9.1 32 -0.2 53 53 N N/A 30.00 1016 10 16 N/A
4:55 pm 16:55 Sunny 47 8.1 31 -0.3 56 56 WSW 3 6 30.01 1016 10 16 N/A
5:15 pm 17:15 Sunny 46 7.8 29 -1.8 51 51 N N/A 30.00 1016 10 16 N/A
5:35 pm 17:35 Clear 45 7.1 28 -2.3 52 52 N N/A 30.01 1016 10 16 N/A
5:55 pm 17:55 Clear 42 5.3 29 -1.6 61 61 WSW 3 6 30.03 1017 10 16 N/A
6:15 pm 18:15 Clear 37 2.6 27 -2.6 69 69 N N/A 30.05 1018 10 16 N/A
6:35 pm 18:35 Clear 37 2.6 29 -1.8 73 73 N N/A 30.04 1017 10 16 N/A
6:55 pm 18:55 Clear 35 1.8 28 -2 76 76 N N/A 30.05 1018 10 16 N/A
7:15 pm 19:15 Clear 32 0.2 27 -2.9 80 80 N N/A 30.06 1018 10 16 N/A
7:35 pm 19:35 Clear 30 -0.9 26 -3.3 84 84 N N/A 30.07 1018 10 16 N/A
7:55 pm 19:55 Clear 32 -0.1 26 -3.1 80 80 WSW 3 6 30.07 1018 10 16 N/A
8:15 pm 20:15 Clear 35 1.4 28 -2 78 78 N N/A 30.05 1018 10 16 N/A
8:35 pm 20:35 Clear 37 3 28 -2.1 69 69 SW 5 7 30.03 1017 10 16 N/A
8:55 pm 20:55 Clear 37 2.5 28 -2.5 70 70 WSW 3 6 30.03 1017 10 16 N/A
9:15 pm 21:15 Clear 31 -0.6 27 -2.8 85 85 SW 3 6 30.06 1018 10 16 N/A
9:35 pm 21:35 Clear 36 2.1 26 -3.1 69 69 SW 3 6 30.03 1017 10 16 N/A
9:55 pm 21:55 Clear 33 0.6 26 -3.5 74 74 WSW 5 7 30.05 1018 10 16 N/A
10:15 pm 22:15 Clear 34 1 26 -3.2 74 74 SW 5 7 30.05 1017 10 16 N/A
10:35 pm 22:35 Clear 35 1.6 25 -4 67 67 SW 3 6 30.04 1017 10 16 N/A
10:55 pm 22:55 Clear 32 0.2 24 -4.3 72 72 N N/A 30.05 1018 10 16 N/A
11:15 pm 23:15 Clear 28 -2.1 23 -5 81 81 WNW 3 6 30.07 1018 10 16 N/A
11:35 pm 23:35 Clear 31 -0.8 24 -4.4 77 77 W 3 6 30.06 1018 10 16 N/A
11:55 pm 23:55 Clear 30 -1.2 24 -4.4 79 79 WNW 3 6 30.07 1018 10 16 N/A

Powered by AerisWeather